Tracking 30970 objects as of 3-Jul-2025
HD Live streaming from Space Station
objects crossing your sky now

TITAN 3C TRANSTAGE DEB

Track TITAN 3C TRANSTAGE DEB now!
10-day predictions


NORAD ID: 1833
Int'l Code: 1965-082DY
Perigee: 620.4 km
Apogee: 708.3 km
Inclination: 32.2 °
Period: 97.9 minutes
Semi major axis: 7035 km
RCS: 0.1109 m2 (medium)
Launch date: October 15, 1965
Source: United States (US)
Launch site: AIR FORCE EASTERN TEST RANGE (AFETR)

Note: This is SATELLITE DEBRIS
Your satellite tracking list
SAC-D (AQUARIUS)
Track 1 satellite(s)




NASA's NSSDC Master Catalog

Two Line Element Set (TLE):
1 01833U 65082DY  25183.95450620  .00002123  00000-0  32180-3 0  9991
2 01833  32.2258 141.9263 0062443 176.8313 183.2741 14.71204945118422
Source of the keplerian elements: AFSPC